Wind_Speed
4 4 3 2 1 1 2 3 3 4 4 4 3 3 3 2 2 2 1 1 1 1 2 3 3 3 4 4 4 4 4 5 5 5 4 4 4 5 5 5 5 5 5
5 4 3 3 2 2 3 4 4 5 5 5 5 5 4 4 4 4 4 4 3 3 2 2 3 3 3 3 3 4 4 4 4 4 4 3 3 4 4 4 4 4 4
5 5 4 4 3 3 4 5 6 6 6 7 6 6 6 6 6 6 6 6 6 5 5 4 4 4 3 3 3 3 3 3 3 3 2 2 2 2 3 3 4 4 4
6 5 5 4 5 5 6 6 7 8 8 8 8 8 9 9 9 9 9 9 8 8 7 7 6 6 5 5 4 4 4 4 3 3 2 1 0 1 1 2 3 3 3
6 5 5 6 6 6 7 8 8 9 10 10 10 11 11 11 11 11 11 11 10 10 9 9 8 8 8 8 7 6 6 5 4 3 3 2 1 1 1 1 2 2 2
6 6 6 6 7 7 8 9 10 11 11 12 12 13 13 13 13 13 13 12 12 12 11 11 10 10 9 9 9 9 8 7 6 5 4 4 3 2 2 2 2 2 2
7 7 6 7 7 8 10 11 12 13 13 14 14 14 14 15 15 15 15 14 14 13 13 12 12 12 11 11 11 11 11 10 9 7 6 6 5 4 4 3 3 3 3
6 7 7 8 9 10 12 13 13 14 15 15 15 16 16 16 16 16 16 16 16 15 15 14 14 14 14 13 13 13 13 12 12 10 9 8 7 7 6 5 5 5 5
7 8 9 10 11 12 13 14 15 16 16 16 17 18 18 18 18 18 18 18 18 18 17 17 16 16 15 15 15 15 14 14 14 13 12 11 10 9 9 8 8 8 7
9 9 10 12 12 13 14 15 16 17 18 19 19 20 20 21 20 20 20 21 21 20 19 19 19 18 17 17 17 16 16 15 15 15 14 14 14 12 12 11 10 10 10
11 11 12 13 15 15 16 17 18 19 20 21 22 22 22 23 23 23 23 23 23 23 22 22 21 21 20 19 19 19 18 18 18 17 15 16 17 16 15 14 14 13 12
13 14 14 16 17 18 19 20 21 22 23 23 24 25 25 25 24 24 24 25 26 26 25 25 24 23 22 22 21 21 20 20 20 19 18 17 18 18 18 17 17 17 16
16 17 17 18 19 20 20 21 22 23 24 25 24 24 26 26 25 25 24 23 24 25 25 26 27 26 25 24 22 21 21 22 22 22 20 18 19 20 20 20 20 19 19
17 18 18 19 20 20 21 22 23 24 24 24 24 25 25 25 24 24 23 23 23 23 24 25 27 28 26 24 24 23 21 20 22 23 21 19 19 19 21 21 22 22 21
18 19 19 19 19 20 21 22 23 23 23 22 22 22 21 22 22 21 22 22 22 23 23 23 24 25 23 23 23 23 22 21 21 22 22 20 20 19 20 21 23 24 24
18 18 19 18 18 19 21 21 20 20 20 20 21 20 21 21 20 20 21 22 22 23 23 22 23 23 23 23 22 22 22 22 22 22 22 22 21 20 20 21 22 24 25
18 19 19 19 18 18 18 18 17 18 17 19 19 18 19 20 21 21 21 22 23 23 23 22 23 23 24 25 24 23 23 24 24 24 24 24 23 23 22 22 23 24 26
18 18 17 16 16 16 16 16 16 17 18 18 18 18 20 21 21 22 23 23 23 23 23 23 23 24 24 24 25 25 26 26 25 26 26 26 26 25 24 23 23 24 26
16 16 15 14 14 14 15 16 16 16 16 17 18 19 20 21 22 24 23 23 23 22 22 23 23 24 24 25 26 26 27 26 26 28 28 28 28 27 26 26 26 25 26
15 14 14 13 13 13 14 15 15 16 16 17 19 20 21 21 22 23 23 22 23 23 23 23 24 24 25 25 25 26 27 27 27 28 28 28 28 28 28 28 28 28 28
13 13 13 13 13 14 14 15 15 16 17 18 19 20 21 21 21 22 22 21 22 22 23 23 24 24 25 25 25 26 27 27 27 28 28 29 29 29 29 30 30 30 30
12 12 11 11 13 14 14 15 15 16 17 17 19 19 20 20 20 20 21 21 21 22 22 23 24 24 25 25 26 26 27 28 28 28 29 30 30 31 31 31 31 31 32
10 9 10 10 11 12 14 15 15 17 18 18 19 19 19 20 20 20 21 22 22 22 22 23 24 24 25 26 27 27 27 28 29 29 29 30 31 32 32 32 32 32 32
8 8 8 10 11 13 14 15 17 17 18 19 19 19 20 20 20 21 21 22 22 22 23 23 24 25 25 26 27 27 28 29 30 30 30 30 31 32 33 33 33 33 33
6 7 9 10 12 13 15 16 18 19 19 20 20 20 21 21 21 22 22 22 23 23 24 24 25 25 26 27 27 28 29 30 31 31 32 32 32 33 33 34 34 34 35
7 9 10 11 13 15 16 18 19 20 20 21 21 21 22 22 22 22 23 24 24 24 25 25 26 27 27 28 29 29 30 31 32 33 33 33 34 34 34 35 35 35 35
Wind_Direction
262 247 245 255 259 278 287 294 298 299 298 296 293 288 285 289 296 306 323 339 355 23 34 34 36 39 39 39 37 36 35 36 40 40 41 50 65 75 76 82 90 100 106
271 259 256 259 265 280 289 291 289 288 287 288 290 286 284 286 289 290 292 293 294 297 314 333 347 357 6 10 12 14 17 20 23 27 30 38 55 72 80 83 94 105 108
280 271 264 263 267 278 287 291 290 287 287 286 287 286 286 286 287 287 285 285 286 287 289 297 305 312 321 330 335 343 350 354 3 8 7 17 38 70 88 91 99 105 109
281 278 270 274 280 286 289 291 292 289 289 288 286 286 287 286 285 285 283 282 282 283 284 286 290 292 294 298 304 310 316 322 330 339 329 324 328 80 102 104 110 113 116
280 279 280 280 285 289 288 289 291 290 288 287 287 286 285 283 282 281 281 281 280 281 282 282 284 286 286 287 288 291 293 296 301 306 302 307 297 256 207 141 133 139 138
281 283 284 286 290 293 292 292 293 291 288 286 286 286 285 284 282 281 281 281 280 280 281 280 279 280 282 282 282 283 285 285 285 288 291 290 284 267 249 229 206 191 177
288 290 288 290 293 294 294 294 293 292 290 289 288 287 286 285 283 281 280 279 279 279 278 278 277 277 278 279 280 280 280 279 279 279 277 279 277 269 261 251 239 228 213
300 301 296 292 294 296 296 297 296 293 291 291 289 287 286 284 284 283 282 279 279 279 276 274 274 275 276 277 278 278 279 278 276 274 271 270 267 264 259 256 248 240 231
306 306 302 300 299 298 297 296 296 295 293 294 291 286 284 282 282 281 280 277 277 277 275 273 272 272 273 274 275 275 276 276 274 272 268 265 262 259 256 253 250 245 237
304 306 304 304 302 299 297 295 295 296 294 293 292 288 281 279 278 276 275 274 274 273 271 271 270 270 271 272 272 271 273 273 273 272 267 260 255 255 254 252 248 246 240
305 306 305 304 299 296 295 293 292 291 291 290 288 287 283 278 276 275 273 270 272 270 267 266 266 267 269 270 270 268 269 269 271 270 264 258 255 252 253 250 247 245 242
305 305 304 303 299 294 292 290 289 288 286 286 286 283 281 278 275 275 276 275 270 269 268 265 262 264 265 266 267 266 266 267 269 267 268 266 260 252 250 248 246 244 241
301 303 303 303 299 295 292 291 288 288 287 286 287 284 283 281 280 279 277 278 275 270 269 267 262 261 262 262 264 265 266 266 267 267 265 269 266 256 248 246 245 243 241
302 302 301 299 298 296 294 291 289 288 288 285 284 286 284 283 283 281 280 281 281 276 274 272 266 263 265 265 263 264 264 265 265 264 264 265 266 258 250 246 246 244 243
299 300 300 300 298 297 294 294 292 288 288 285 287 288 284 286 288 285 282 284 285 283 281 279 273 268 268 270 269 266 264 265 263 263 265 266 266 261 255 252 249 247 244
296 296 298 298 296 297 296 295 291 289 288 293 293 291 290 291 292 291 289 288 288 285 284 282 277 271 270 271 270 268 266 265 263 264 264 264 264 262 259 256 251 247 244
295 296 296 296 294 296 299 299 297 293 292 292 295 295 293 294 293 292 293 292 290 287 285 282 279 275 273 271 270 269 267 265 265 264 263 263 263 261 258 257 254 249 245
296 295 296 298 296 297 300 301 301 298 298 297 299 298 295 296 297 296 294 292 290 289 287 284 282 279 275 273 271 270 269 269 267 264 262 262 261 258 257 256 255 252 247
292 297 299 299 301 301 302 304 305 305 306 306 305 304 300 298 297 296 294 293 290 289 288 285 282 278 275 274 273 272 272 271 268 267 265 263 260 258 257 256 254 254 250
289 296 299 299 302 304 305 306 308 307 308 309 308 306 305 303 301 298 297 295 292 290 287 284 282 279 276 275 274 273 273 271 268 267 266 263 260 259 258 255 254 254 252
288 294 292 295 302 304 306 308 308 307 308 309 309 308 306 305 302 299 299 296 294 292 289 286 283 281 280 279 276 275 274 273 270 269 267 264 262 260 258 256 254 253 252
288 289 290 294 299 303 309 311 310 312 313 314 313 312 310 308 306 303 301 300 297 294 291 289 286 284 281 280 278 276 276 275 274 271 268 265 263 261 260 258 256 253 252
289 293 294 305 310 313 316 317 318 319 320 319 318 316 314 313 311 310 308 305 302 298 294 291 288 286 284 282 279 278 276 276 276 274 271 267 265 263 261 259 257 254 252
292 298 306 313 318 321 323 323 324 324 324 323 321 319 318 317 315 313 311 308 305 302 298 294 290 288 286 284 282 280 278 276 275 274 272 270 267 264 262 260 258 255 253
313 315 318 320 324 327 328 329 328 327 325 324 322 321 320 319 318 316 314 311 308 305 301 298 295 292 290 287 285 283 281 279 277 275 273 271 268 265 263 261 259 256 253
326 326 327 328 330 332 331 330 328 327 326 326 324 323 322 321 319 317 314 313 310 308 305 302 299 296 294 291 288 285 283 280 278 276 274 272 270 267 265 262 260 258 255
Height
5909 5909 5910 5911 5911 5911 5911 5911 5911 5911 5911 5911 5910 5910 5910 5909 5909 5909 5908 5908 5908 5907 5907 5906 5906 5905 5905 5904 5904 5903 5903 5903 5902 5902 5902 5902 5902 5902 5902 5903 5903 5904 5905
5908 5909 5910 5910 5910 5911 5911 5911 5911 5911 5911 5911 5911 5910 5910 5910 5909 5909 5909 5908 5908 5908 5907 5907 5906 5906 5905 5905 5904 5904 5904 5903 5903 5903 5903 5903 5903 5903 5904 5904 5904 5905 5906
5908 5908 5909 5909 5910 5910 5910 5911 5911 5911 5911 5911 5910 5910 5910 5910 5910 5909 5909 5908 5908 5908 5907 5907 5906 5906 5906 5905 5905 5904 5904 5904 5904 5904 5903 5903 5904 5904 5904 5905 5905 5906 5907
5907 5907 5908 5908 5909 5909 5910 5910 5910 5910 5910 5910 5910 5910 5910 5909 5909 5909 5908 5908 5908 5907 5907 5907 5906 5906 5905 5905 5905 5904 5904 5904 5904 5904 5904 5904 5904 5905 5905 5906 5906 5907 5907
5906 5906 5907 5907 5908 5908 5908 5909 5909 5909 5909 5909 5909 5909 5909 5909 5908 5908 5907 5907 5907 5906 5906 5906 5906 5905 5905 5905 5904 5904 5904 5904 5904 5904 5904 5904 5904 5905 5905 5906 5907 5907 5908
5905 5905 5906 5906 5907 5907 5907 5908 5908 5908 5908 5908 5908 5908 5907 5907 5907 5906 5906 5906 5905 5905 5905 5905 5905 5904 5904 5904 5904 5903 5903 5903 5904 5904 5904 5904 5905 5905 5905 5906 5907 5907 5908
5904 5904 5904 5905 5905 5906 5906 5906 5906 5906 5906 5906 5906 5906 5905 5905 5905 5904 5904 5904 5904 5903 5903 5903 5903 5903 5903 5903 5903 5902 5902 5902 5903 5903 5903 5904 5904 5905 5905 5906 5907 5907 5908
5903 5903 5903 5904 5904 5904 5904 5904 5904 5904 5904 5904 5904 5904 5903 5903 5903 5902 5902 5902 5902 5901 5901 5901 5901 5901 5901 5901 5901 5901 5901 5901 5901 5902 5902 5903 5903 5904 5904 5905 5906 5907 5908
5901 5901 5902 5902 5902 5902 5902 5902 5902 5902 5902 5902 5901 5901 5900 5900 5900 5900 5900 5899 5899 5899 5899 5898 5898 5898 5898 5898 5899 5899 5899 5899 5899 5900 5900 5901 5901 5902 5903 5904 5905 5906 5907
5899 5900 5900 5900 5900 5900 5900 5900 5900 5900 5899 5899 5898 5897 5897 5897 5897 5897 5896 5896 5896 5896 5895 5895 5895 5895 5895 5896 5896 5896 5896 5896 5897 5897 5898 5897 5898 5900 5901 5902 5904 5905 5906
5896 5897 5898 5898 5898 5898 5898 5897 5897 5896 5896 5895 5895 5894 5893 5893 5893 5892 5892 5891 5892 5891 5891 5892 5892 5892 5892 5892 5893 5893 5893 5893 5894 5894 5895 5894 5895 5897 5898 5900 5902 5903 5905
5894 5894 5895 5895 5895 5895 5895 5894 5893 5893 5892 5891 5890 5889 5889 5888 5888 5887 5886 5886 5886 5886 5887 5887 5887 5887 5888 5888 5889 5889 5890 5890 5890 5890 5891 5890 5891 5893 5894 5896 5898 5900 5902
5891 5891 5891 5892 5891 5891 5890 5890 5889 5888 5888 5886 5885 5884 5884 5883 5883 5883 5882 5881 5880 5880 5881 5881 5881 5882 5883 5884 5885 5885 5886 5886 5886 5886 5887 5887 5887 5889 5890 5893 5895 5897 5899
5889 5888 5889 5888 5887 5887 5886 5885 5884 5884 5882 5881 5881 5880 5879 5879 5878 5878 5877 5877 5876 5876 5875 5875 5875 5876 5878 5878 5879 5880 5881 5882 5882 5881 5881 5882 5883 5884 5886 5888 5890 5893 5895
5886 5885 5885 5885 5884 5883 5882 5881 5879 5879 5877 5875 5876 5874 5874 5874 5873 5872 5872 5872 5871 5870 5870 5869 5870 5871 5872 5872 5874 5875 5876 5877 5878 5877 5877 5878 5879 5880 5882 5884 5886 5888 5890
5882 5882 5882 5881 5880 5879 5878 5876 5875 5874 5873 5872 5872 5870 5869 5869 5868 5868 5867 5867 5866 5865 5864 5864 5864 5865 5866 5867 5868 5869 5871 5872 5872 5872 5872 5874 5875 5876 5878 5879 5881 5883 5885
5879 5879 5878 5877 5876 5875 5874 5873 5871 5870 5869 5869 5868 5867 5866 5865 5865 5864 5863 5862 5861 5860 5859 5859 5859 5859 5861 5862 5863 5864 5865 5866 5867 5867 5868 5869 5870 5871 5873 5874 5876 5878 5880
5876 5875 5874 5874 5873 5872 5871 5870 5868 5867 5866 5865 5864 5864 5863 5862 5860 5859 5858 5857 5856 5855 5855 5854 5854 5854 5855 5856 5857 5858 5859 5860 5861 5861 5862 5863 5865 5866 5867 5869 5870 5872 5874
5872 5872 5871 5871 5870 5869 5868 5867 5866 5864 5863 5862 5861 5860 5859 5858 5856 5855 5854 5852 5851 5850 5850 5849 5850 5849 5850 5850 5851 5851 5852 5853 5854 5855 5856 5857 5858 5860 5861 5863 5864 5866 5868
5869 5869 5869 5868 5867 5866 5865 5864 5863 5862 5861 5859 5858 5856 5855 5853 5852 5850 5849 5848 5846 5846 5845 5845 5844 5844 5844 5844 5845 5845 5845 5846 5847 5848 5848 5850 5851 5853 5854 5856 5858 5860 5862
5867 5867 5867 5866 5865 5864 5863 5862 5860 5859 5858 5856 5855 5853 5851 5850 5848 5846 5845 5844 5842 5841 5840 5839 5839 5839 5838 5838 5839 5839 5839 5839 5840 5841 5841 5843 5844 5845 5847 5849 5852 5854 5855
5865 5864 5864 5863 5862 5862 5860 5859 5857 5856 5855 5853 5851 5850 5848 5846 5844 5842 5840 5839 5838 5836 5835 5834 5834 5833 5833 5832 5833 5833 5832 5833 5833 5833 5834 5835 5836 5838 5839 5841 5844 5846 5848
5862 5862 5862 5861 5860 5859 5857 5856 5855 5853 5851 5850 5848 5846 5844 5842 5840 5838 5836 5834 5833 5831 5830 5829 5828 5828 5827 5826 5826 5826 5826 5826 5825 5826 5827 5827 5828 5830 5831 5833 5835 5838 5840
5860 5860 5860 5859 5858 5856 5855 5853 5852 5850 5848 5846 5844 5842 5841 5838 5836 5834 5832 5830 5828 5826 5825 5824 5823 5822 5821 5820 5819 5818 5818 5818 5818 5818 5819 5819 5820 5822 5823 5825 5827 5829 5832
5859 5858 5858 5857 5855 5854 5852 5850 5849 5847 5845 5843 5841 5839 5837 5835 5833 5830 5828 5826 5824 5822 5820 5818 5817 5815 5814 5813 5812 5811 5811 5810 5810 5810 5810 5811 5812 5813 5814 5816 5818 5821 5823
5857 5856 5856 5854 5853 5851 5849 5848 5846 5844 5842 5840 5837 5835 5833 5831 5829 5827 5824 5822 5819 5817 5815 5813 5811 5809 5807 5806 5804 5803 5803 5802 5802 5801 5802 5802 5803 5804 5805 5807 5809 5811 5814